Date String (YYYY-MM-DD hh:mm:ss) UTC,Instrument flags,Ambient pressure (hPa),Sample flow (lpm),Bypass flow (lpm),Sample temperature (°C),Ambient temperature (°C),ASC tube jacket temperature (°C),LED temperature (°C),Box temperature (°C),Sample RH (%),Mass concentration (μg/m³),Mass concentration (μg/m³)
DateTimeUTC,F1_M11,P_M11,Q1_M11,Q2_M11,T1_M11,T2_M11,T3_M11,T4_M11,T5_M11,U1_M11,X0_M11,X2_M11
2021-08-16 04:00:00,,0829.6,5.01,0.00,29.1,27.8,00.0,38.2,31.0,26.3,0020.08,0010.97
2021-08-16 04:01:00,,0829.6,5.00,0.00,29.2,28.0,00.0,38.2,31.1,26.1,0019.23,0010.96
2021-08-16 04:02:00,,0829.6,5.00,0.00,29.2,28.1,00.0,38.2,31.1,26.4,0019.21,0010.90
2021-08-16 04:03:00,,0829.6,5.00,0.00,29.3,28.3,00.0,38.3,31.2,26.0,0018.46,0010.90
2021-08-16 04:04:00,,0829.6,5.00,0.00,29.3,28.4,00.0,38.3,31.2,25.3,0017.86,0010.90
2021-08-16 04:05:00,,0829.6,4.99,0.00,29.3,28.5,00.0,38.3,31.3,25.4,0018.16,0010.90
2021-08-16 04:06:00,,0829.6,5.00,0.00,29.4,28.6,00.0,38.3,31.3,25.1,0018.00,0010.89
2021-08-16 04:07:00,,0829.6,5.01,0.00,29.4,28.6,00.0,38.4,31.3,24.6,0017.90,0010.86
2021-08-16 04:08:00,,0829.6,5.00,0.00,29.5,28.7,00.0,38.4,31.4,24.1,0018.79,0010.91
2021-08-16 04:09:00,,0829.5,4.99,0.00,29.5,28.6,00.0,38.4,31.4,24.0,0018.59,0010.97
2021-08-16 04:10:00,,0829.6,5.02,0.00,29.4,26.9,00.0,38.4,30.9,23.8,0018.44,0011.00
2021-08-16 04:11:00,,0829.6,5.00,0.00,29.2,25.5,00.0,38.4,30.5,23.8,0018.42,0011.03
2021-08-16 04:12:00,,0829.6,5.00,0.00,29.1,25.5,00.0,38.3,30.5,23.7,0018.88,0011.08
2021-08-16 04:13:00,,0829.6,5.00,0.00,29.1,26.0,00.0,38.3,30.6,23.8,0019.36,0011.15
2021-08-16 04:14:00,,0829.6,5.00,0.00,29.0,26.4,00.0,38.3,30.6,23.7,0019.74,0011.17
2021-08-16 04:15:00,,0829.6,4.99,0.00,29.0,26.8,00.0,38.2,30.7,23.4,0019.39,0011.17
2021-08-16 04:16:00,,0829.6,5.01,0.00,29.0,27.2,00.0,38.2,30.8,23.4,0018.56,0011.15
2021-08-16 04:17:00,,0829.6,4.99,0.00,29.1,27.4,00.0,38.2,30.9,23.3,0018.20,0011.16
2021-08-16 04:18:00,,0829.6,5.00,0.00,29.1,27.7,00.0,38.2,31.0,23.3,0018.19,0011.20
2021-08-16 04:19:00,,0829.6,5.01,0.00,29.2,27.9,00.0,38.2,31.0,23.3,0017.02,0011.18
2021-08-16 04:20:00,,0829.6,5.00,0.00,29.2,28.0,00.0,38.2,31.1,23.2,0016.61,0011.20
2021-08-16 04:21:00,,0829.6,5.01,0.00,29.2,28.2,00.0,38.3,31.1,23.2,0016.73,0011.25
2021-08-16 04:22:00,,0829.6,5.00,0.00,29.3,28.3,00.0,38.3,31.2,23.1,0016.80,0011.30
2021-08-16 04:23:00,,0829.6,5.00,0.00,29.3,28.4,00.0,38.3,31.2,23.2,0016.53,0011.30
2021-08-16 04:24:00,,0829.5,5.00,0.00,29.4,28.5,00.0,38.3,31.3,23.1,0016.47,0011.35
2021-08-16 04:25:00,,0829.5,5.00,0.00,29.4,28.6,00.0,38.3,31.3,23.1,0016.80,0011.34
2021-08-16 04:26:00,,0829.6,5.00,0.00,29.4,28.6,00.0,38.4,31.4,23.1,0017.34,0011.40
2021-08-16 04:27:00,,0829.6,5.00,0.00,29.5,28.7,00.0,38.4,31.4,23.1,0018.24,0011.42
2021-08-16 04:28:00,,0829.5,5.00,0.00,29.5,28.2,00.0,38.4,31.3,23.0,0018.48,0011.38
2021-08-16 04:29:00,,0829.5,5.01,0.00,29.4,26.3,00.0,38.4,30.7,23.0,0018.70,0011.33
2021-08-16 04:30:00,,0829.5,4.99,0.00,29.2,25.4,00.0,38.4,30.5,23.2,0018.84,0011.29
2021-08-16 04:31:00,,0829.5,5.00,0.00,29.1,25.7,00.0,38.3,30.5,23.4,0018.79,0011.24
2021-08-16 04:32:00,,0829.5,5.00,0.00,29.1,26.2,00.0,38.3,30.6,23.6,0018.71,0011.18
2021-08-16 04:33:00,,0829.5,4.99,0.00,29.0,26.6,00.0,38.2,30.7,23.7,0019.35,0011.11
2021-08-16 04:34:00,,0829.5,5.01,0.00,29.1,27.0,00.0,38.2,30.8,23.7,0019.30,0011.07
2021-08-16 04:35:00,,0829.5,5.00,0.00,29.1,27.3,00.0,38.2,30.8,23.7,0019.14,0011.03
2021-08-16 04:36:00,,0829.5,4.99,0.00,29.1,27.6,00.0,38.2,30.9,23.7,0018.24,0011.01
2021-08-16 04:37:00,,0829.5,4.99,0.00,29.1,27.8,00.0,38.2,31.0,23.7,0017.73,0010.97
2021-08-16 04:38:00,,0829.5,5.01,0.00,29.2,28.0,00.0,38.2,31.0,23.7,0017.14,0010.94
2021-08-16 04:39:00,,0829.5,4.99,0.00,29.2,28.1,00.0,38.2,31.1,23.6,0016.96,0010.99
2021-08-16 04:40:00,,0829.6,5.01,0.00,29.3,28.3,00.0,38.2,31.2,23.6,0016.76,0011.01
2021-08-16 04:41:00,,0829.5,5.00,0.00,29.3,28.4,00.0,38.3,31.2,23.5,0016.61,0011.07
2021-08-16 04:42:00,,0829.5,5.00,0.00,29.4,28.5,00.0,38.3,31.2,23.5,0016.78,0011.10
2021-08-16 04:43:00,,0829.5,5.00,0.00,29.4,28.6,00.0,38.3,31.3,23.5,0017.16,0011.11
2021-08-16 04:44:00,,0829.5,4.99,0.00,29.4,28.7,00.0,38.3,31.4,23.6,0016.52,0011.16
2021-08-16 04:45:00,,0829.6,5.00,0.00,29.5,28.7,00.0,38.4,31.4,23.6,0016.50,0011.23
2021-08-16 04:46:00,,0829.8,5.01,0.00,29.5,28.8,00.0,38.4,31.4,23.7,0016.16,0011.23
2021-08-16 04:47:00,,0829.6,5.00,0.00,29.6,28.5,00.0,38.4,31.4,23.7,0016.52,0011.25
2021-08-16 04:48:00,,0829.5,5.00,0.00,29.5,26.7,00.0,38.4,30.8,23.8,0016.57,0011.26
2021-08-16 04:49:00,,0829.5,4.99,0.00,29.3,25.4,00.0,38.4,30.5,23.7,0016.27,0011.28
2021-08-16 04:50:00,,0829.5,5.02,0.00,29.2,25.6,00.0,38.4,30.5,24.1,0016.13,0011.24
2021-08-16 04:51:00,,0829.6,4.99,0.00,29.1,26.0,00.0,38.3,30.6,24.0,0016.20,0011.23
2021-08-16 04:52:00,,0829.6,5.00,0.00,29.1,26.5,00.0,38.3,30.7,23.3,0016.06,0011.17
2021-08-16 04:53:00,,0829.6,5.00,0.00,29.1,26.9,00.0,38.3,30.8,22.8,0015.78,0011.11
2021-08-16 04:54:00,,0829.5,5.00,0.00,29.1,27.2,00.0,38.2,30.9,22.7,0015.32,0011.04
2021-08-16 04:55:00,,0829.6,5.00,0.00,29.1,27.5,00.0,38.2,30.9,22.7,0015.14,0010.97
2021-08-16 04:56:00,,0829.6,5.00,0.00,29.2,27.7,00.0,38.2,31.0,22.6,0014.89,0010.85
2021-08-16 04:57:00,,0829.5,5.01,0.00,29.2,27.9,00.0,38.2,31.0,22.6,0014.85,0010.82
2021-08-16 04:58:00,,0829.5,4.99,0.00,29.2,28.1,00.0,38.3,31.1,22.6,0014.47,0010.78
2021-08-16 04:59:00,,0829.5,5.00,0.00,29.3,28.2,00.0,38.3,31.1,22.6,0014.43,0010.73
